Time,TemperatureF,DewpointF,PressureIn,WindDirection,WindDirectionDegrees,WindSpeedMPH,WindSpeedGustMPH,Humidity,HourlyPrecipIn,Conditions,Clouds,dailyrainin,SolarRadiationWatts/m^2,SoftwareType,DateUTC
2013-01-13 00:01:00,22.0,22.0,-100.00,NNE,19,0.0,0.0,98,0.00,,,0.00,0.000000,,2013-01-13 08:01:00,
2013-01-13 00:32:00,22.0,22.0,-100.00,NNE,19,0.0,0.0,98,0.00,,,0.00,0.000000,,2013-01-13 08:32:00,
2013-01-13 00:42:00,22.0,22.0,-100.00,NNE,19,0.0,0.0,98,0.00,,,0.00,0.000000,,2013-01-13 08:42:00,
2013-01-13 00:52:00,22.0,22.0,-100.00,NNE,19,0.0,0.0,98,0.00,,,0.00,0.000000,,2013-01-13 08:52:00,
2013-01-13 01:01:00,21.0,21.0,-100.00,NNE,23,0.0,0.0,98,0.00,,,0.00,0.000000,,2013-01-13 09:01:00,
2013-01-13 01:22:00,21.0,21.0,-100.00,NNE,23,0.0,0.0,98,0.00,,,0.00,0.000000,,2013-01-13 09:22:00,
2013-01-13 01:32:00,21.0,21.0,-100.00,NNE,23,0.0,0.0,98,0.00,,,0.00,0.000000,,2013-01-13 09:32:00,
2013-01-13 01:42:00,21.0,21.0,-100.00,NNE,23,0.0,0.0,98,0.00,,,0.00,0.000000,,2013-01-13 09:42:00,
2013-01-13 01:52:00,21.0,21.0,-100.00,NNE,23,0.0,0.0,98,0.00,,,0.00,0.000000,,2013-01-13 09:52:00,
2013-01-13 02:01:00,21.0,21.0,-100.00,NNE,27,0.0,0.0,98,0.00,,,0.00,0.000000,,2013-01-13 10:01:00,
2013-01-13 02:32:00,21.0,21.0,-100.00,NNE,27,0.0,0.0,98,0.00,,,0.00,0.000000,,2013-01-13 10:32:00,
2013-01-13 02:42:00,21.0,21.0,-100.00,NNE,27,0.0,0.0,98,0.00,,,0.00,0.000000,,2013-01-13 10:42:00,
2013-01-13 02:52:00,21.0,21.0,-100.00,NNE,27,0.0,0.0,98,0.00,,,0.00,0.000000,,2013-01-13 10:52:00,
2013-01-13 03:01:00,21.0,21.0,-100.00,NNE,25,0.0,0.0,98,0.00,,,0.00,0.000000,,2013-01-13 11:01:00,
2013-01-13 03:33:00,21.0,21.0,-100.00,NNE,25,0.0,0.0,98,0.00,,,0.00,0.000000,,2013-01-13 11:33:00,
2013-01-13 03:42:00,21.0,21.0,-100.00,NNE,25,0.0,0.0,98,0.00,,,0.00,0.000000,,2013-01-13 11:42:00,
2013-01-13 03:52:00,21.0,21.0,-100.00,NNE,25,0.0,0.0,98,0.00,,,0.00,0.000000,,2013-01-13 11:52:00,
2013-01-13 04:01:00,21.0,21.0,-100.00,NNE,22,0.0,0.0,98,0.00,,,0.00,0.000000,,2013-01-13 12:01:00,
2013-01-13 04:33:00,21.0,21.0,-100.00,NNE,22,0.0,0.0,98,0.00,,,0.00,0.000000,,2013-01-13 12:33:00,
2013-01-13 04:42:00,21.0,21.0,-100.00,NNE,22,0.0,0.0,98,0.00,,,0.00,0.000000,,2013-01-13 12:42:00,
2013-01-13 04:53:00,21.0,21.0,-100.00,NNE,22,0.0,0.0,98,0.00,,,0.00,0.000000,,2013-01-13 12:53:00,
2013-01-13 05:01:00,21.0,20.0,-100.00,NNE,25,0.0,0.0,97,0.00,,,0.00,0.000000,,2013-01-13 13:01:00,
2013-01-13 05:22:00,21.0,20.0,-100.00,NNE,25,0.0,0.0,97,0.00,,,0.00,0.000000,,2013-01-13 13:22:00,
2013-01-13 05:33:00,21.0,20.0,-100.00,NNE,25,0.0,0.0,97,0.00,,,0.00,0.000000,,2013-01-13 13:33:00,
2013-01-13 05:42:00,21.0,20.0,-100.00,NNE,25,0.0,0.0,97,0.00,,,0.00,0.000000,,2013-01-13 13:42:00,
2013-01-13 05:53:00,21.0,20.0,-100.00,NNE,25,0.0,0.0,97,0.00,,,0.00,0.000000,,2013-01-13 13:53:00,
2013-01-13 06:01:00,21.0,20.0,-100.00,NNE,26,0.0,0.0,97,0.00,,,0.00,0.000000,,2013-01-13 14:01:00,
2013-01-13 06:33:00,21.0,20.0,-100.00,NNE,26,0.0,0.0,97,0.00,,,0.00,0.000000,,2013-01-13 14:33:00,
2013-01-13 06:43:00,21.0,20.0,-100.00,NNE,26,0.0,0.0,97,0.00,,,0.00,0.000000,,2013-01-13 14:43:00,
2013-01-13 06:53:00,21.0,20.0,-100.00,NNE,26,0.0,0.0,97,0.00,,,0.00,0.000000,,2013-01-13 14:53:00,
2013-01-13 07:01:00,21.0,21.0,-100.00,NNE,31,0.0,0.0,98,0.00,,,0.00,0.000000,,2013-01-13 15:01:00,
2013-01-13 07:23:00,21.0,21.0,-100.00,NNE,31,0.0,0.0,98,0.00,,,0.00,0.000000,,2013-01-13 15:23:00,
2013-01-13 07:33:00,21.0,21.0,-100.00,NNE,31,0.0,0.0,98,0.00,,,0.00,0.000000,,2013-01-13 15:33:00,
2013-01-13 07:43:00,21.0,21.0,-100.00,NNE,31,0.0,0.0,98,0.00,,,0.00,0.000000,,2013-01-13 15:43:00,
2013-01-13 07:53:00,21.0,21.0,-100.00,NNE,31,0.0,0.0,98,0.00,,,0.00,0.000000,,2013-01-13 15:53:00,
2013-01-13 08:01:00,21.0,21.0,-100.00,NNE,30,0.0,2.0,98,0.00,,,0.00,0.000000,,2013-01-13 16:01:00,
2013-01-13 08:33:00,21.0,21.0,-100.00,NNE,30,0.0,2.0,98,0.00,,,0.00,0.000000,,2013-01-13 16:33:00,
2013-01-13 08:43:00,21.0,21.0,-100.00,NNE,30,0.0,2.0,98,0.00,,,0.00,0.000000,,2013-01-13 16:43:00,
2013-01-13 08:53:00,21.0,21.0,-100.00,NNE,30,0.0,2.0,98,0.00,,,0.00,0.000000,,2013-01-13 16:53:00,
2013-01-13 09:01:00,21.0,21.0,-100.00,NNE,29,0.0,1.0,98,0.00,,,0.00,1.000000,,2013-01-13 17:01:00,
2013-01-13 09:33:00,21.0,21.0,-100.00,NNE,29,0.0,1.0,98,0.00,,,0.00,1.000000,,2013-01-13 17:33:00,
2013-01-13 09:43:00,21.0,21.0,-100.00,NNE,29,0.0,1.0,98,0.00,,,0.00,1.000000,,2013-01-13 17:43:00,
2013-01-13 09:53:00,21.0,21.0,-100.00,NNE,29,0.0,1.0,98,0.00,,,0.00,1.000000,,2013-01-13 17:53:00,
2013-01-13 10:01:00,22.0,21.0,-100.00,NNE,29,0.0,0.0,97,0.00,,,0.00,29.000000,,2013-01-13 18:01:00,
2013-01-13 10:33:00,22.0,21.0,-100.00,NNE,29,0.0,0.0,97,0.00,,,0.00,29.000000,,2013-01-13 18:33:00,
2013-01-13 10:43:00,22.0,21.0,-100.00,NNE,29,0.0,0.0,97,0.00,,,0.00,29.000000,,2013-01-13 18:43:00,
2013-01-13 10:53:00,22.0,21.0,-100.00,NNE,29,0.0,0.0,97,0.00,,,0.00,29.000000,,2013-01-13 18:53:00,
2013-01-13 11:01:00,24.0,23.0,-100.00,NE,36,0.0,0.0,95,0.00,,,0.00,130.000000,,2013-01-13 19:01:00,
2013-01-13 11:33:00,24.0,23.0,-100.00,NE,36,0.0,0.0,95,0.00,,,0.00,130.000000,,2013-01-13 19:33:00,
2013-01-13 11:43:00,24.0,23.0,-100.00,NE,36,0.0,0.0,95,0.00,,,0.00,130.000000,,2013-01-13 19:43:00,
2013-01-13 11:53:00,24.0,23.0,-100.00,NE,36,0.0,0.0,95,0.00,,,0.00,130.000000,,2013-01-13 19:53:00,
2013-01-13 12:01:00,24.0,23.0,-100.00,NE,47,0.0,0.0,95,0.00,,,0.00,242.000000,,2013-01-13 20:01:00,
2013-01-13 12:33:00,24.0,23.0,-100.00,NE,47,0.0,0.0,95,0.00,,,0.00,242.000000,,2013-01-13 20:33:00,
2013-01-13 12:43:00,24.0,23.0,-100.00,NE,47,0.0,0.0,95,0.00,,,0.00,242.000000,,2013-01-13 20:43:00,
2013-01-13 12:53:00,24.0,23.0,-100.00,NE,47,0.0,0.0,95,0.00,,,0.00,242.000000,,2013-01-13 20:53:00,
2013-01-13 13:01:00,27.0,26.0,-100.00,ENE,62,0.0,0.0,94,0.00,,,0.00,271.000000,,2013-01-13 21:01:00,
2013-01-13 13:33:00,27.0,26.0,-100.00,ENE,62,0.0,0.0,94,0.00,,,0.00,271.000000,,2013-01-13 21:33:00,
2013-01-13 13:43:00,27.0,26.0,-100.00,ENE,62,0.0,0.0,94,0.00,,,0.00,271.000000,,2013-01-13 21:43:00,
2013-01-13 13:53:00,27.0,26.0,-100.00,ENE,62,0.0,0.0,94,0.00,,,0.00,271.000000,,2013-01-13 21:53:00,
2013-01-13 14:01:00,30.0,28.0,-100.00,NNE,31,0.0,0.0,93,0.00,,,0.00,287.000000,,2013-01-13 22:01:00,
2013-01-13 14:23:00,30.0,28.0,-100.00,NNE,31,0.0,0.0,93,0.00,,,0.00,287.000000,,2013-01-13 22:23:00,
2013-01-13 14:33:00,30.0,28.0,-100.00,NNE,31,0.0,0.0,93,0.00,,,0.00,287.000000,,2013-01-13 22:33:00,
2013-01-13 14:43:00,30.0,28.0,-100.00,NNE,31,0.0,0.0,93,0.00,,,0.00,287.000000,,2013-01-13 22:43:00,
2013-01-13 14:52:00,30.0,28.0,-100.00,NNE,31,0.0,0.0,93,0.00,,,0.00,287.000000,,2013-01-13 22:52:00,
2013-01-13 15:01:00,32.0,30.0,-100.00,South,183,0.0,0.0,93,0.00,,,0.00,361.000000,,2013-01-13 23:01:00,
2013-01-13 15:33:00,32.0,30.0,-100.00,South,183,0.0,0.0,93,0.00,,,0.00,361.000000,,2013-01-13 23:33:00,
2013-01-13 15:43:00,32.0,30.0,-100.00,South,183,0.0,0.0,93,0.00,,,0.00,361.000000,,2013-01-13 23:43:00,
2013-01-13 15:53:00,32.0,30.0,-100.00,South,183,0.0,0.0,93,0.00,,,0.00,361.000000,,2013-01-13 23:53:00,
2013-01-13 16:01:00,32.0,30.0,-100.00,NNW,340,0.0,0.0,94,0.00,,,0.00,255.000000,,2013-01-14 00:01:00,
2013-01-13 16:33:00,32.0,30.0,-100.00,NNW,340,0.0,0.0,94,0.00,,,0.00,255.000000,,2013-01-14 00:33:00,
2013-01-13 16:43:00,32.0,30.0,-100.00,NNW,340,0.0,0.0,94,0.00,,,0.00,255.000000,,2013-01-14 00:43:00,
2013-01-13 16:53:00,32.0,30.0,-100.00,NNW,340,0.0,0.0,94,0.00,,,0.00,255.000000,,2013-01-14 00:53:00,
2013-01-13 17:01:00,26.0,26.0,-100.00,South,184,0.0,0.0,98,0.00,,,0.00,106.000000,,2013-01-14 01:01:00,
2013-01-13 17:33:00,26.0,26.0,-100.00,South,184,0.0,0.0,98,0.00,,,0.00,106.000000,,2013-01-14 01:33:00,
2013-01-13 17:42:00,26.0,26.0,-100.00,South,184,0.0,0.0,98,0.00,,,0.00,106.000000,,2013-01-14 01:42:00,
2013-01-13 17:52:00,26.0,26.0,-100.00,South,184,0.0,0.0,98,0.00,,,0.00,106.000000,,2013-01-14 01:52:00,
2013-01-13 18:01:00,25.0,25.0,-100.00,North,8,0.0,0.0,98,0.00,,,0.00,22.000000,,2013-01-14 02:01:00,
2013-01-13 18:33:00,25.0,25.0,-100.00,North,8,0.0,0.0,98,0.00,,,0.00,22.000000,,2013-01-14 02:33:00,
2013-01-13 18:43:00,25.0,25.0,-100.00,North,8,0.0,0.0,98,0.00,,,0.00,22.000000,,2013-01-14 02:43:00,
2013-01-13 18:53:00,25.0,25.0,-100.00,North,8,0.0,0.0,98,0.00,,,0.00,22.000000,,2013-01-14 02:53:00,
2013-01-13 19:01:00,25.0,25.0,-100.00,North,1,0.0,0.0,98,0.00,,,0.00,0.000000,,2013-01-14 03:01:00,
2013-01-13 19:33:00,25.0,25.0,-100.00,North,1,0.0,0.0,98,0.00,,,0.00,0.000000,,2013-01-14 03:33:00,
2013-01-13 19:43:00,25.0,25.0,-100.00,North,1,0.0,0.0,98,0.00,,,0.00,0.000000,,2013-01-14 03:43:00,
2013-01-13 19:53:00,25.0,25.0,-100.00,North,1,0.0,0.0,98,0.00,,,0.00,0.000000,,2013-01-14 03:53:00,
2013-01-13 20:01:00,24.0,22.0,-100.00,SSW,199,0.0,0.0,92,0.00,,,0.00,0.000000,,2013-01-14 04:01:00,
2013-01-13 20:32:00,24.0,22.0,-100.00,SSW,199,0.0,0.0,92,0.00,,,0.00,0.000000,,2013-01-14 04:32:00,
2013-01-13 20:42:00,24.0,22.0,-100.00,SSW,199,0.0,0.0,92,0.00,,,0.00,0.000000,,2013-01-14 04:42:00,
2013-01-13 20:53:00,24.0,22.0,-100.00,SSW,199,0.0,0.0,92,0.00,,,0.00,0.000000,,2013-01-14 04:53:00,
2013-01-13 21:01:00,25.0,23.0,-100.00,SSW,205,0.0,0.0,92,0.00,,,0.00,0.000000,,2013-01-14 05:01:00,
2013-01-13 21:22:00,25.0,23.0,-100.00,SSW,205,0.0,0.0,92,0.00,,,0.00,0.000000,,2013-01-14 05:22:00,
2013-01-13 21:33:00,25.0,23.0,-100.00,SSW,205,0.0,0.0,92,0.00,,,0.00,0.000000,,2013-01-14 05:33:00,
2013-01-13 21:43:00,25.0,23.0,-100.00,SSW,205,0.0,0.0,92,0.00,,,0.00,0.000000,,2013-01-14 05:43:00,
2013-01-13 21:52:00,25.0,23.0,-100.00,SSW,205,0.0,0.0,92,0.00,,,0.00,0.000000,,2013-01-14 05:52:00,
2013-01-13 22:01:00,24.0,23.0,-100.00,WSW,237,0.0,0.0,94,0.00,,,0.00,0.000000,,2013-01-14 06:01:00,
2013-01-13 22:23:00,24.0,23.0,-100.00,WSW,237,0.0,0.0,94,0.00,,,0.00,0.000000,,2013-01-14 06:23:00,
2013-01-13 22:33:00,24.0,23.0,-100.00,WSW,237,0.0,0.0,94,0.00,,,0.00,0.000000,,2013-01-14 06:33:00,
2013-01-13 22:43:00,24.0,23.0,-100.00,WSW,237,0.0,0.0,94,0.00,,,0.00,0.000000,,2013-01-14 06:43:00,
2013-01-13 22:52:00,24.0,23.0,-100.00,WSW,237,0.0,0.0,94,0.00,,,0.00,0.000000,,2013-01-14 06:52:00,
2013-01-13 23:01:00,26.0,25.0,-100.00,SW,227,0.0,0.0,94,0.00,,,0.00,0.000000,,2013-01-14 07:01:00,
2013-01-13 23:33:00,26.0,25.0,-100.00,SW,227,0.0,0.0,94,0.00,,,0.00,0.000000,,2013-01-14 07:33:00,
2013-01-13 23:43:00,26.0,25.0,-100.00,SW,227,0.0,0.0,94,0.00,,,0.00,0.000000,,2013-01-14 07:43:00,
2013-01-13 23:52:00,26.0,25.0,-100.00,SW,227,0.0,0.0,94,0.00,,,0.00,0.000000,,2013-01-14 07:52:00,